| time (UTC) | temp F | wind direction | speed MPH | gust MPH | rain 1hr in | rain 24hr in | rain mn in | humidity % | barometer mb |
| 20260505010021 | 50 | 163 | 1.0 | 9.0 | 0.00 | 0.00 | 0.00 | 50 | 1013.7 |
| 20260505004516 | 51 | 304 | 0.0 | 3.0 | 0.00 | 0.00 | 0.00 | 51 | 1013.7 |
| 20260505003011 | 51 | 296 | 2.0 | 6.0 | 0.00 | 0.00 | 0.00 | 48 | 1013.7 |
| 20260505001517 | 51 | 294 | 2.0 | 6.0 | 0.00 | 0.00 | 0.00 | 48 | 1013.7 |
| 20260505000021 | 51 | 325 | 2.0 | 8.0 | 0.00 | 0.00 | 0.00 | 48 | 1013.6 |
| 20260504234524 | 51 | 312 | 3.0 | 12.0 | 0.00 | 0.00 | 0.00 | 48 | 1013.5 |
| 20260504233008 | 52 | 301 | 7.0 | 12.0 | 0.00 | 0.00 | 0.00 | 45 | 1013.3 |
| 20260504231514 | 52 | 256 | 9.0 | 14.0 | 0.00 | 0.00 | 0.00 | 48 | 1013.2 |
| 20260504230018 | 52 | 275 | 3.0 | 7.0 | 0.00 | 0.00 | 0.00 | 49 | 1013.3 |
| 20260504224524 | 52 | 229 | 3.0 | 8.0 | 0.00 | 0.00 | 0.00 | 49 | 1013.3 |
| 20260504223034 | 54 | 209 | 3.0 | 7.0 | 0.00 | 0.00 | 0.00 | 46 | 1013.3 |
| 20260504221512 | 56 | 272 | 2.0 | 12.0 | 0.00 | 0.00 | 0.00 | 42 | 1013.3 |
| 20260504220021 | 54 | 258 | 5.0 | 8.0 | 0.00 | 0.00 | 0.00 | 52 | 1013.5 |
| 20260504214520 | 53 | 284 | 2.0 | 4.0 | 0.00 | 0.00 | 0.00 | 50 | 1013.7 |
| 20260504213024 | 53 | 290 | 3.0 | 6.0 | 0.00 | 0.00 | 0.00 | 50 | 1013.7 |
| 20260504211529 | 53 | 314 | 1.0 | 3.0 | 0.00 | 0.00 | 0.00 | 48 | 1013.7 |
| 20260504210013 | 52 | 331 | 2.0 | 6.0 | 0.00 | 0.00 | 0.00 | 50 | 1013.7 |
| 20260504204541 | 52 | 348 | 2.0 | 4.0 | 0.00 | 0.00 | 0.00 | 50 | 1013.8 |
| 20260504203029 | 52 | 348 | 2.0 | 6.0 | 0.00 | 0.00 | 0.00 | 49 | 1013.7 |
| 20260504201526 | 53 | 352 | 2.0 | 7.0 | 0.00 | 0.00 | 0.00 | 47 | 1013.6 |
| 20260504200029 | 53 | 254 | 2.0 | 4.0 | 0.00 | 0.00 | 0.00 | 48 | 1013.7 |
| 20260504194516 | 53 | 221 | 2.0 | 5.0 | 0.00 | 0.00 | 0.00 | 45 | 1013.7 |
| 20260504193021 | 54 | 269 | 2.0 | 7.0 | 0.00 | 0.00 | 0.00 | 44 | 1013.8 |
| 20260504191525 | 55 | 32 | 2.0 | 8.0 | 0.00 | 0.00 | 0.00 | 44 | 1014.0 |
| 20260504190036 | 54 | 26 | 1.0 | 5.0 | 0.00 | 0.00 | 0.00 | 44 | 1014.0 |
| 20260504184535 | 54 | 245 | 2.0 | 8.0 | 0.00 | 0.00 | 0.00 | 44 | 1014.1 |
| 20260504183022 | 53 | 182 | 5.0 | 10.0 | 0.00 | 0.00 | 0.00 | 46 | 1014.2 |
| 20260504181524 | 53 | 90 | 2.0 | 7.0 | 0.00 | 0.00 | 0.00 | 49 | 1014.3 |
| 20260504180008 | 51 | 209 | 3.0 | 9.0 | 0.00 | 0.00 | 0.00 | 45 | 1014.5 |
| 20260504174513 | 52 | 126 | 3.0 | 12.0 | 0.00 | 0.00 | 0.00 | 46 | 1014.6 |
| 20260504173016 | 51 | 296 | 2.0 | 10.0 | 0.00 | 0.00 | 0.00 | 47 | 1014.6 |
| 20260504171528 | 51 | 108 | 1.0 | 9.0 | 0.00 | 0.00 | 0.00 | 46 | 1014.7 |
| 20260504081537 | 52 | 106 | 2.0 | 4.0 | 0.00 | 0.00 | 0.00 | 38 | 1011.4 |
| 20260504050022 | 54 | 123 | 4.0 | 7.0 | 0.00 | 0.00 | 0.00 | 40 | 1011.6 |
| 20260504044526 | 54 | 153 | 5.0 | 7.0 | 0.00 | 0.00 | 0.00 | 38 | 1011.5 |
| 20260504043008 | 54 | 173 | 4.0 | 6.0 | 0.00 | 0.00 | 0.00 | 39 | 1011.3 |
| 20260504041514 | 57 | 202 | 1.0 | 3.0 | 0.00 | 0.00 | 0.00 | 33 | 1011.2 |
| 20260504040022 | 57 | 85 | 0.0 | 2.0 | 0.00 | 0.00 | 0.00 | 33 | 1010.9 |
| 20260504034520 | 57 | 67 | 1.0 | 2.0 | 0.00 | 0.00 | 0.00 | 35 | 1010.6 |
| 20260504033026 | 57 | 56 | 0.0 | 2.0 | 0.00 | 0.00 | 0.00 | 34 | 1010.4 |
| 20260504031531 | 57 | 71 | 1.0 | 5.0 | 0.00 | 0.00 | 0.00 | 34 | 1010.3 |
| 20260504030025 | 57 | 13 | 0.0 | 4.0 | 0.00 | 0.00 | 0.00 | 34 | 1010.2 |
| 20260504024533 | 58 | 75 | 1.0 | 3.0 | 0.00 | 0.00 | 0.00 | 36 | 1010.1 |
| 20260504023025 | 61 | 19 | 0.0 | 3.0 | 0.00 | 0.00 | 0.00 | 36 | 1010.2 |
| 20260504021527 | 63 | 344 | 0.0 | 2.0 | 0.00 | 0.00 | 0.00 | 34 | 1010.1 |
| 20260504020014 | 65 | 59 | 1.0 | 5.0 | 0.00 | 0.00 | 0.00 | 36 | 1010.2 |
| 20260504014530 | 67 | 19 | 0.0 | 0.0 | 0.00 | 0.00 | 0.00 | 30 | 1010.2 |
| 20260504013034 | 69 | 5 | 0.0 | 2.0 | 0.00 | 0.00 | 0.00 | 30 | 1010.3 |
| 20260504011526 | 70 | 360 | 1.0 | 3.0 | 0.00 | 0.00 | 0.00 | 24 | 1010.4 |